This is the latest recevied weather packets stored in our database for station/object OM5ZU-10. If no packets are shown the sender has not sent any weather packets the latest 10 day(s).
| Time | Temp. | Humidity | Pressure | Rain* | Wind** | Luminosity | Snow |
|---|---|---|---|---|---|---|---|
| 1788541512 | 26.67° C | 72% | 1012.7 hPa | - | - | - | - |
| 1788540612 | 27.78° C | 72% | 1012.9 hPa | - | - | - | - |
| 1788539712 | 28.89° C | 73% | 1013.1 hPa | - | - | - | - |
| 1788538812 | 30.56° C | 73% | 1013.1 hPa | - | - | - | - |
| 1788537912 | 30.56° C | 73% | 1013.3 hPa | - | - | - | - |
| 1788537012 | 31.11° C | 73% | 1013.3 hPa | - | - | - | - |
| 1788536111 | 31.67° C | 73% | 1013.6 hPa | - | - | - | - |
| 1788535222 | 31.67° C | 73% | 1013.6 hPa | - | - | - | - |
| 1788534311 | 31.11° C | 73% | 1013.8 hPa | - | - | - | - |
| 1788533411 | 32.22° C | 73% | 1014 hPa | - | - | - | - |
| 1788532511 | 31.11° C | 73% | 1014.2 hPa | - | - | - | - |
| 1788531611 | 30.56° C | 73% | 1014.4 hPa | - | - | - | - |
| 1788530710 | 31.11° C | 73% | 1014.6 hPa | - | - | - | - |
| 1788529810 | 30.56° C | 73% | 1014.8 hPa | - | - | - | - |
| 1788528910 | 31.67° C | 73% | 1015 hPa | - | - | - | - |
| 1788528010 | 30.56° C | 73% | 1015.3 hPa | - | - | - | - |
| 1788527110 | 30.56° C | 73% | 1015.3 hPa | - | - | - | - |
| 1788526210 | 31.67° C | 73% | 1015.5 hPa | - | - | - | - |
| 1788525310 | 31.11° C | 73% | 1015.8 hPa | - | - | - | - |
| 1788524409 | 29.44° C | 73% | 1016 hPa | - | - | - | - |
| 1788523509 | 28.89° C | 73% | 1016.1 hPa | - | - | - | - |
| 1788522609 | 28.89° C | 73% | 1016.3 hPa | - | - | - | - |
| 1788521709 | 29.44° C | 73% | 1016.5 hPa | - | - | - | - |
| 1788520809 | 28.89° C | 73% | 1016.8 hPa | - | - | - | - |
| 1788519909 | 29.44° C | 73% | 1017 hPa | - | - | - | - |
* Rain since midnight (hover to see other rain measurements)
** Current wind speed in m/s (hover to see current wind gust speed)